Weather in Baraba

Russia / Kurgan Oblast     55°14′34″N   65°14′16″E
temp.,
°C
wind,
m/s
gust,
m/s
humid.,
%
clouds,
%
prec.,
mm/h
press.,
hPa
HPBL,
m
17 june, thu
thu1723:00+21w33665 0.0 101324
02:00+18wsw227010 0.0 101220
05:00+18wsw337094 0.0 101244
08:00+23sw2255100 0.0 1010196
11:00+28ssw5643100 0.0 1007689
14:00+31wsw683499 0.0 10061814
17:00+31w2634100 0.0 10031463
20:00+24n9126198 0.0 1003455
18 june, fri
fri1823:00+17sw1194100 4.0 100412
02:00+16nnw499778 0.3 1004390
05:00+15n61195100 1.8 1005644
08:00+12n81581100 1.1 1008718
11:00+15n7115369 1.1 10101212
14:00+18n9113778 0.0 10102317
17:00+18n8113899 0.0 10112967
20:00+16n6114175 0.0 1014538
19 june, sat
sat1923:00+12nw494992 0.0 1015154
02:00+11nnw5135397 0.0 1016320
05:00+9nw412625 0.0 1016257
08:00+15nnw584568 0.0 1017642
11:00+19nnw7103298 0.0 10162897
14:00+19nnw793696 0.0 10152448
17:00+19nw7842100 0.0 10142302
20:00+16nw596095 0.0 1014480
20 june, sun
sun2023:00+14wnw3775100 0.1 1014216
02:00+12wnw238395 0.0 101284
05:00+13nw2484100 0.0 1012147
08:00+16wnw2375100 0.0 1011435
11:00+19wnw4667100 0.1 10101136
14:00+17nw477749 0.1 1010537
17:00+22nnw7106386 0.4 10091435
20:00+20nw34709 0.5 1009137
21 june, mon
mon2123:00+17n714455 0.5 1012492
02:00+13nnw411580 0.0 1013256
05:00+10nnw36690 0.0 1015122
08:00+17nnw59470 0.0 1016900
11:00+21nnw79344 0.0 10151852
14:00+22nnw8103015 0.0 10141995
17:00+17nnw61141100 0.0 1016658
20:00+15nw2552100 0.0 1015262